Temperature
20 21 22 23 23 22 21 20 20 21 21 21 21 20 21 22 22 22 23 23 23 23 23 23 23 22 22 22 22 22 21 21 21 20 20 19 19 19 19 19 18 18 18 18
21 22 22 23 23 23 22 22 21 21 21 20 21 21 21 21 22 22 23 23 23 23 23 23 23 22 22 22 22 21 21 21 20 20 20 19 19 19 19 19 18 18 18 18
19 20 22 22 22 23 23 22 22 21 21 20 20 20 21 21 22 23 23 24 23 23 23 23 23 22 22 22 22 21 21 21 20 20 19 19 19 18 18 18 18 18 18 18
17 20 22 21 21 22 22 22 21 21 20 20 20 21 22 22 23 23 23 23 24 23 23 23 22 22 22 21 21 21 21 20 20 20 19 19 19 18 18 18 18 18 17 17
16 18 20 21 21 21 21 21 20 19 19 19 20 21 21 22 23 23 23 23 23 23 23 22 22 22 21 21 20 20 20 20 20 19 19 19 18 18 18 18 17 17 17 17
16 19 20 21 21 21 21 20 20 19 18 19 20 19 20 22 22 22 22 23 23 22 22 22 22 21 21 21 20 20 20 20 20 19 19 18 18 18 18 17 17 17 17 17
16 18 18 19 19 20 20 20 19 19 18 19 19 20 21 21 22 22 22 22 22 22 22 22 21 21 21 20 20 20 20 19 19 19 18 18 18 18 17 17 17 17 17 17
14 17 18 18 18 18 18 19 19 19 19 19 20 20 20 21 21 21 21 21 22 22 21 21 21 20 20 20 20 19 19 19 19 19 18 18 18 17 17 17 17 17 16 16
14 16 17 17 18 18 19 18 18 18 19 19 19 20 20 20 21 21 21 21 21 21 21 20 20 20 20 20 19 19 19 18 18 18 18 18 17 17 17 16 16 16 16 16
14 15 16 17 18 18 19 19 19 19 19 19 19 19 20 20 20 20 20 20 20 20 20 19 19 19 19 19 19 18 18 18 18 18 17 17 17 17 16 16 16 16 16 15
14 14 16 17 18 18 19 19 19 19 19 19 19 19 19 19 20 20 20 19 19 19 19 19 19 19 19 18 18 18 18 18 17 17 17 17 17 16 16 16 16 15 15 15
14 15 14 16 17 18 18 18 18 18 18 18 18 18 18 19 19 19 19 19 19 18 18 18 18 18 18 18 18 18 17 17 17 17 17 16 16 16 16 15 15 15 15 15
16 16 16 16 17 17 17 18 18 18 18 17 18 18 18 18 18 18 18 18 18 18 18 18 18 18 17 17 17 17 17 17 17 16 16 16 16 15 15 15 15 15 15 15
16 16 16 16 16 17 17 17 17 17 17 17 17 17 17 17 18 18 18 18 17 17 17 17 17 17 17 17 17 17 17 16 16 16 16 15 15 15 15 15 15 15 15 14
16 16 16 16 16 16 16 16 16 16 17 17 17 17 17 17 17 17 17 17 17 17 17 17 17 17 17 16 16 16 16 16 16 15 15 15 15 14 14 14 14 14 14 14
15 15 15 15 16 16 16 16 16 16 16 16 16 16 16 16 16 16 16 16 16 16 17 16 16 16 16 16 16 16 15 15 15 15 15 14 14 14 14 14 14 14 14 14
14 14 15 15 15 15 15 16 16 16 16 16 16 16 16 16 16 16 16 16 16 16 16 16 16 16 15 15 15 15 15 15 15 14 14 14 14 14 13 13 13 13 13 13
14 14 14 14 14 15 15 15 15 15 15 15 16 16 15 15 15 15 15 15 15 15 15 15 15 15 15 15 15 15 14 14 14 14 14 14 14 13 13 13 13 13 13 13
14 14 14 14 14 15 15 15 15 15 15 15 15 15 15 15 15 15 15 15 15 15 15 15 15 14 14 14 14 14 14 14 14 14 13 13 13 13 13 13 12 12 12 12
14 14 14 14 14 14 14 14 14 15 15 15 15 15 15 15 14 14 14 14 14 14 14 14 14 14 14 14 14 14 14 13 13 13 13 13 13 13 12 12 12 12 12 12
14 14 14 14 14 14 14 14 14 14 14 14 14 14 14 14 14 14 14 14 14 14 14 13 13 13 13 13 13 13 13 13 13 13 12 12 12 12 12 12 12 12 11 11
13 13 13 13 13 13 13 13 13 13 13 13 13 13 13 13 13 13 13 13 13 13 13 13 13 13 13 13 13 13 12 12 12 12 12 12 12 12 12 11 11 11 11 11
13 13 13 13 13 13 13 13 13 13 13 13 13 13 13 13 13 13 13 13 13 13 13 13 13 12 12 12 12 12 12 12 12 12 12 12 12 11 11 11 11 11 10 10
13 13 13 13 13 13 13 13 13 13 13 12 12 12 12 12 12 12 12 12 12 12 12 12 12 12 12 12 12 12 11 11 11 11 11 11 11 11 11 10 10 10 10 10
12 12 12 12 12 12 12 12 12 12 12 12 12 12 12 12 12 12 12 12 12 12 12 12 12 12 12 11 11 11 11 11 11 11 11 11 10 10 10 10 10 9 9 9
12 12 12 12 12 12 12 12 12 12 12 12 12 12 12 11 11 11 11 11 11 11 11 11 11 11 11 11 11 10 10 10 10 10 10 10 10 10 10 9 9 9 8 8
12 12 12 11 11 11 11 11 11 11 11 11 11 11 11 11 11 11 11 11 11 11 11 11 11 10 10 10 10 10 10 10 10 10 9 9 9 9 9 8 8 8 7 7
Wind_Speed
4 3 2 4 4 6 6 8 8 8 8 9 7 5 4 3 3 3 3 3 5 5 5 5 5 5 5 6 5 6 6 7 7 6 5 5 4 4 4 4 4 4 3 3
1 2 2 3 4 5 5 5 5 4 7 6 4 1 2 3 4 5 5 5 5 5 5 6 6 6 6 6 6 6 7 7 6 5 5 5 5 5 4 4 3 3 3 3
2 4 2 3 4 4 3 3 5 7 8 3 2 3 5 5 5 6 6 6 5 6 6 7 6 6 7 7 6 6 6 6 5 5 6 6 5 5 5 4 4 3 3 3
1 2 4 7 4 3 2 3 3 4 4 4 5 3 2 3 5 5 5 5 5 5 5 5 5 5 5 4 5 6 6 6 6 6 6 5 5 5 5 4 4 4 4 4
3 2 5 7 2 1 2 4 2 2 2 2 0 3 3 2 2 4 4 4 4 4 4 4 4 5 4 4 4 5 5 6 6 6 5 5 5 5 4 4 4 4 3 4
4 3 6 6 4 3 2 3 3 1 2 1 2 1 4 3 2 1 1 1 2 2 2 3 4 4 5 5 4 5 6 6 5 5 6 6 6 5 3 3 4 3 4 4
4 4 7 6 6 1 3 6 3 2 3 3 3 5 4 2 1 1 1 1 1 1 2 3 4 5 5 4 5 5 4 4 4 5 6 6 5 4 4 4 3 3 4 4
4 4 6 5 2 2 5 4 2 2 3 2 2 2 1 0 1 2 3 3 2 2 0 0 3 5 4 4 4 2 3 3 3 4 4 4 4 4 4 4 4 4 3 4
7 6 5 4 3 3 2 2 3 3 3 2 1 2 1 0 1 2 2 2 2 2 2 1 1 3 4 3 2 3 3 3 2 2 3 3 4 4 3 4 4 3 4 5
2 5 5 4 3 3 2 2 3 2 2 1 2 2 1 0 1 2 2 2 2 3 2 1 1 2 3 2 3 4 3 3 2 3 2 2 2 3 3 4 4 4 4 5
3 5 5 5 4 4 4 4 4 3 3 2 1 2 2 1 0 0 1 1 2 2 1 0 0 1 2 3 4 4 3 2 2 2 3 2 2 3 4 5 5 6 6 5
5 6 4 6 5 3 3 3 3 3 4 3 2 2 2 1 1 0 1 1 2 1 1 0 1 1 1 2 3 3 2 2 2 2 2 2 2 2 2 4 5 7 7 6
6 5 5 5 5 3 2 3 3 2 1 2 2 1 1 1 1 0 1 1 1 1 1 1 1 1 1 2 3 3 3 2 2 2 2 3 3 3 3 3 2 4 5 6
5 3 3 4 4 4 3 3 3 2 1 1 0 0 0 0 1 0 1 1 1 1 1 1 1 1 1 2 2 2 2 2 2 3 3 3 3 3 3 3 3 3 3 4
4 3 4 4 4 4 3 2 2 2 2 2 1 1 1 1 2 2 2 1 0 0 1 0 1 2 1 2 2 3 2 2 2 2 2 2 2 2 3 3 3 3 3 3
4 3 3 2 3 3 3 2 2 3 3 3 2 3 2 2 2 2 2 1 1 2 2 2 2 3 2 2 2 2 2 3 2 2 2 2 2 2 2 3 3 3 3 3
2 3 3 3 3 4 4 3 3 4 4 4 4 3 2 1 1 2 2 2 2 3 3 2 3 3 2 2 2 2 2 2 2 2 2 3 3 3 3 3 3 3 4 4
5 5 5 5 5 4 5 4 4 4 4 4 3 2 2 2 3 4 3 2 2 3 3 3 3 3 2 2 3 2 2 2 2 2 3 3 3 3 3 3 3 4 3 3
4 4 4 4 4 4 4 4 4 4 3 2 2 3 3 3 3 2 2 1 2 4 4 4 4 3 3 3 2 2 2 2 2 1 1 2 2 2 2 2 3 3 3 2
3 3 4 3 3 2 3 4 3 3 3 2 2 3 3 3 3 2 1 2 4 4 4 4 3 3 3 2 2 1 2 2 2 2 1 2 2 2 2 2 2 2 3 3
3 4 3 2 2 3 3 3 3 4 4 2 3 3 4 4 3 2 2 4 5 3 2 2 2 2 2 1 1 1 1 1 1 1 2 2 1 1 1 1 2 2 2 2
3 3 2 2 1 3 3 2 2 3 2 2 3 3 2 3 3 2 3 4 3 2 1 1 1 1 1 0 0 1 1 1 1 1 1 1 1 1 1 1 1 1 1 1
2 2 2 2 2 2 2 2 2 2 2 3 3 3 3 3 2 2 4 3 2 2 1 1 1 1 1 1 1 1 0 1 1 1 1 1 1 1 1 1 1 1 1 1
2 2 2 2 2 2 3 4 3 2 2 3 3 3 2 2 2 2 3 3 2 2 1 1 1 1 1 1 1 1 1 1 1 1 1 1 0 0 0 0 0 1 1 1
2 2 2 2 2 2 3 3 3 3 3 3 3 2 1 1 2 2 2 2 1 1 1 1 1 2 2 1 1 1 1 0 0 1 1 1 1 0 0 0 0 0 1 1
2 1 1 1 2 2 2 2 2 2 2 2 3 2 2 1 1 2 1 1 1 1 1 1 1 1 1 1 1 1 0 0 0 0 0 0 1 1 0 0 1 1 1 1
2 2 2 2 3 2 1 1 2 2 2 2 2 3 2 2 1 1 1 1 1 1 1 1 1 1 1 1 1 1 1 1 0 0 0 0 0 0 0 0 1 1 1 1
Wind_Direction
231 241 220 221 216 189 190 187 191 225 229 256 261 249 241 213 192 183 195 195 195 200 202 197 198 199 197 197 191 187 184 196 209 209 204 202 204 207 208 209 217 213 210 217
327 317 248 246 251 214 210 198 212 232 257 251 258 248 228 209 192 199 213 214 212 207 205 205 205 202 198 200 194 183 190 204 205 197 199 203 205 202 201 207 211 205 213 218
265 315 13 274 250 224 216 202 188 218 240 249 242 229 228 221 208 210 220 223 219 214 215 215 213 205 202 204 187 180 195 204 201 201 206 209 207 199 203 206 204 206 215 221
127 64 227 248 267 210 219 252 229 231 234 228 233 243 258 233 215 221 220 222 226 222 225 220 210 207 197 177 176 185 197 204 203 202 208 202 194 204 209 203 202 211 219 223
125 183 270 290 274 146 197 270 252 218 271 296 30 31 340 302 226 230 228 229 236 225 216 208 201 195 171 170 178 188 203 210 206 199 201 200 202 209 209 203 211 216 223 221
133 167 227 249 295 313 135 276 289 231 245 235 76 91 271 308 320 300 283 256 239 224 186 180 186 167 159 173 181 204 214 213 204 190 192 200 204 206 207 209 222 226 236 231
164 206 253 273 301 18 166 252 284 232 237 226 212 219 244 301 340 11 10 27 93 133 170 189 167 157 165 181 207 218 209 198 194 192 196 197 192 192 196 205 208 222 239 247
154 190 250 308 19 154 234 274 278 259 252 260 265 281 273 339 34 43 37 34 60 88 72 214 157 160 174 207 222 194 174 176 184 187 193 191 186 195 191 193 206 221 239 258
191 211 250 283 263 270 241 269 287 281 289 279 286 284 289 327 13 22 28 28 60 90 86 60 139 171 186 216 186 160 162 177 183 182 192 185 187 196 195 198 214 231 239 253
250 261 275 293 314 327 318 295 297 293 302 307 270 260 278 273 348 9 9 14 42 78 91 81 149 176 186 176 150 151 168 183 185 186 199 205 200 198 205 213 220 232 243 252
271 283 311 305 306 311 332 349 1 359 356 340 288 263 229 225 274 325 24 35 55 85 103 126 172 159 144 132 137 149 164 178 191 198 201 212 220 219 219 221 218 223 234 236
234 245 237 271 287 305 322 329 340 355 357 339 269 236 213 204 230 163 83 70 73 74 91 148 139 138 135 138 143 152 165 181 200 209 212 214 224 261 270 247 246 232 230 227
232 249 241 265 294 311 306 311 319 318 290 300 311 240 207 244 240 150 100 97 123 203 221 214 168 177 198 155 152 166 185 201 213 214 213 218 218 225 262 300 283 253 244 239
246 258 287 287 291 303 304 308 320 327 316 292 294 72 134 286 295 229 218 225 208 247 283 258 204 225 220 155 163 190 196 202 210 221 223 223 223 225 230 241 271 287 279 252
278 258 246 272 298 306 305 317 330 314 311 324 323 273 224 238 261 266 279 301 11 343 312 304 246 255 241 171 190 212 218 226 224 231 231 225 223 225 236 240 251 271 288 290
286 292 276 279 290 300 311 316 294 284 277 275 279 279 259 221 246 273 286 287 231 249 253 234 246 259 236 196 203 219 228 234 226 232 236 230 224 227 242 252 262 267 270 274
256 281 287 291 286 287 284 271 253 256 263 265 263 267 267 254 271 281 284 276 267 267 260 242 254 264 237 209 213 231 233 245 242 236 232 231 231 235 244 250 255 261 268 271
231 239 246 249 256 269 282 286 278 269 258 259 264 261 254 244 252 264 272 281 304 308 294 279 269 266 252 225 211 217 220 232 235 238 237 239 245 248 247 251 255 257 273 288
244 248 261 267 266 265 272 276 277 276 269 249 235 241 242 247 252 263 280 292 288 288 292 290 272 263 264 256 223 202 206 222 236 244 242 249 258 260 254 252 256 262 268 275
281 274 273 275 274 272 275 281 289 294 281 250 235 251 263 260 251 243 245 263 259 257 273 285 282 275 272 264 221 198 204 216 227 237 244 246 252 263 262 259 260 263 268 266
321 316 306 293 291 294 293 296 292 285 286 262 236 244 257 267 260 237 245 274 282 279 285 283 287 286 281 261 184 187 201 218 220 218 230 235 241 256 270 279 273 265 271 289
322 322 319 315 312 306 305 298 289 286 293 289 275 274 278 280 273 268 260 256 279 290 299 297 294 287 278 13 134 172 204 217 211 198 203 203 194 205 225 256 271 281 309 329
331 335 330 320 303 295 315 321 314 308 297 288 280 274 268 263 253 254 284 291 293 269 269 285 275 201 176 102 121 132 174 182 185 177 157 150 164 171 179 237 276 300 334 347
351 342 330 327 2 6 335 317 317 315 306 299 292 280 268 276 297 278 274 292 292 278 300 295 226 190 154 117 108 113 140 164 160 148 132 144 180 184 193 210 289 330 344 353
332 340 357 16 10 323 299 309 328 334 338 336 330 322 294 239 246 275 286 299 324 355 357 12 70 84 84 89 101 110 124 168 175 153 156 221 251 243 228 268 296 308 312 307
328 328 322 312 297 301 317 334 334 327 328 329 329 330 335 329 290 284 310 353 33 49 41 35 55 83 96 96 94 94 73 352 45 41 261 257 298 298 291 311 327 312 301 292
345 348 350 350 345 339 336 339 332 327 322 313 322 336 343 343 346 351 5 14 24 29 42 50 59 70 89 84 78 65 38 18 10 5 13 4 325 307 306 339 336 327 315 299
Height
1505 1501 1501 1500 1500 1502 1506 1510 1516 1510 1507 1497 1491 1489 1488 1488 1489 1490 1492 1493 1494 1496 1497 1499 1501 1503 1505 1507 1508 1510 1511 1513 1514 1515 1517 1517 1518 1519 1520 1521 1521 1522 1523 1523
1504 1500 1499 1500 1496 1496 1498 1500 1502 1501 1500 1489 1488 1488 1488 1487 1488 1489 1489 1491 1492 1494 1495 1496 1498 1500 1502 1504 1505 1507 1508 1509 1511 1512 1513 1514 1515 1516 1517 1517 1518 1519 1519 1520
1513 1505 1500 1506 1496 1494 1494 1492 1495 1498 1493 1487 1487 1486 1486 1486 1486 1486 1487 1489 1490 1491 1493 1494 1495 1497 1499 1500 1502 1503 1505 1506 1508 1509 1510 1511 1512 1513 1514 1514 1515 1516 1516 1517
1518 1511 1518 1503 1489 1489 1490 1489 1488 1488 1486 1485 1485 1484 1485 1485 1485 1485 1486 1487 1488 1489 1491 1492 1493 1494 1496 1497 1499 1500 1502 1503 1504 1506 1507 1508 1509 1510 1511 1511 1512 1512 1513 1513
1522 1521 1513 1497 1488 1489 1492 1492 1486 1486 1485 1484 1484 1484 1484 1484 1484 1484 1485 1486 1487 1488 1489 1490 1490 1492 1493 1494 1495 1497 1498 1499 1501 1502 1503 1505 1506 1507 1508 1509 1509 1509 1510 1510
1520 1519 1518 1499 1487 1485 1489 1495 1486 1484 1484 1484 1483 1488 1485 1483 1482 1483 1484 1485 1485 1486 1486 1487 1488 1489 1490 1491 1492 1493 1495 1496 1498 1498 1500 1501 1503 1504 1505 1506 1506 1506 1506 1507
1517 1516 1508 1492 1486 1485 1499 1496 1486 1484 1484 1483 1483 1483 1483 1482 1482 1482 1482 1482 1483 1484 1484 1484 1486 1487 1487 1488 1489 1491 1492 1494 1495 1495 1497 1498 1499 1500 1501 1502 1502 1502 1502 1502
1517 1516 1510 1490 1487 1491 1492 1486 1484 1483 1483 1482 1481 1481 1481 1481 1481 1481 1480 1480 1481 1481 1481 1482 1483 1484 1485 1485 1487 1488 1490 1491 1491 1492 1493 1494 1495 1496 1497 1497 1498 1498 1498 1498
1506 1504 1494 1490 1489 1487 1486 1484 1483 1482 1482 1481 1480 1480 1481 1481 1480 1480 1480 1479 1479 1479 1480 1481 1481 1482 1482 1483 1485 1486 1487 1488 1489 1490 1491 1491 1492 1492 1493 1493 1493 1494 1494 1494
1499 1494 1490 1488 1487 1485 1484 1483 1482 1481 1480 1480 1480 1480 1480 1480 1479 1479 1479 1479 1478 1478 1478 1478 1479 1480 1481 1482 1483 1484 1484 1485 1486 1487 1488 1489 1489 1489 1490 1490 1490 1490 1490 1490
1497 1492 1489 1486 1485 1484 1483 1482 1481 1480 1479 1479 1479 1479 1479 1479 1478 1478 1478 1477 1477 1477 1477 1477 1478 1478 1479 1481 1481 1482 1483 1483 1484 1484 1485 1485 1486 1486 1487 1487 1487 1487 1487 1487
1494 1489 1489 1486 1484 1483 1481 1480 1480 1479 1478 1479 1479 1478 1478 1478 1477 1477 1477 1476 1476 1476 1476 1476 1477 1477 1478 1479 1480 1480 1481 1481 1482 1482 1482 1482 1482 1483 1483 1483 1484 1483 1483 1483
1487 1486 1485 1484 1483 1482 1481 1480 1479 1478 1478 1478 1477 1478 1477 1476 1476 1476 1475 1475 1475 1475 1476 1476 1476 1476 1477 1477 1478 1479 1479 1479 1479 1479 1479 1479 1479 1479 1478 1479 1479 1479 1479 1479
1485 1484 1482 1481 1481 1480 1479 1479 1478 1478 1477 1477 1476 1476 1476 1475 1475 1474 1474 1473 1474 1475 1475 1474 1474 1474 1475 1475 1476 1477 1477 1477 1476 1476 1476 1475 1475 1475 1475 1475 1474 1474 1475 1475
1482 1481 1480 1479 1479 1478 1477 1477 1476 1476 1476 1476 1476 1475 1474 1473 1473 1473 1472 1472 1473 1473 1473 1473 1473 1473 1473 1473 1474 1474 1474 1474 1473 1473 1473 1472 1472 1472 1472 1471 1471 1470 1470 1470
1479 1479 1478 1477 1476 1476 1475 1475 1474 1474 1474 1474 1474 1474 1473 1472 1472 1472 1472 1471 1471 1471 1471 1471 1471 1471 1471 1471 1471 1471 1471 1470 1470 1470 1470 1470 1469 1469 1468 1468 1467 1467 1466 1465
1476 1475 1475 1475 1474 1473 1473 1473 1473 1472 1472 1472 1472 1472 1472 1471 1470 1470 1470 1470 1469 1469 1469 1468 1468 1469 1469 1468 1468 1468 1467 1467 1467 1467 1466 1466 1466 1465 1465 1464 1464 1463 1462 1462
1474 1474 1473 1473 1472 1472 1471 1471 1470 1470 1470 1470 1470 1469 1469 1468 1467 1467 1467 1467 1466 1466 1465 1465 1466 1466 1465 1465 1464 1464 1464 1463 1463 1463 1463 1463 1462 1462 1461 1461 1461 1460 1459 1459
1471 1471 1470 1470 1470 1470 1469 1468 1468 1467 1467 1467 1467 1466 1466 1466 1465 1464 1464 1463 1463 1462 1463 1463 1464 1463 1462 1462 1461 1461 1460 1460 1459 1459 1459 1459 1459 1459 1458 1458 1458 1457 1456 1456
1469 1468 1468 1468 1468 1467 1467 1466 1466 1465 1465 1465 1464 1464 1464 1463 1463 1462 1461 1461 1460 1460 1461 1461 1461 1460 1460 1459 1458 1458 1457 1457 1456 1456 1456 1456 1456 1456 1456 1455 1454 1454 1453 1452
1467 1467 1466 1466 1465 1465 1465 1464 1464 1463 1463 1462 1462 1462 1461 1461 1460 1459 1458 1458 1458 1458 1458 1458 1457 1457 1456 1456 1455 1454 1454 1454 1453 1453 1452 1452 1452 1453 1452 1452 1452 1451 1450 1449
1466 1466 1465 1464 1464 1464 1464 1463 1462 1461 1461 1460 1460 1459 1458 1458 1457 1457 1456 1456 1456 1456 1455 1455 1454 1454 1454 1453 1452 1452 1451 1451 1450 1450 1450 1450 1449 1449 1449 1449 1449 1448 1447 1446
1465 1465 1465 1464 1463 1463 1462 1462 1461 1460 1459 1458 1457 1456 1456 1455 1455 1454 1453 1454 1453 1453 1452 1452 1452 1451 1451 1450 1449 1449 1449 1448 1448 1448 1448 1447 1447 1446 1446 1446 1446 1445 1444 1443
1465 1464 1464 1463 1463 1462 1461 1460 1459 1458 1457 1456 1455 1454 1454 1453 1453 1452 1452 1452 1451 1451 1450 1450 1450 1449 1448 1448 1447 1447 1447 1446 1446 1446 1445 1445 1445 1444 1443 1443 1442 1442 1441 1440
1464 1464 1463 1462 1461 1460 1460 1458 1458 1457 1455 1454 1453 1453 1452 1451 1451 1451 1450 1449 1449 1449 1448 1448 1447 1447 1446 1446 1446 1445 1445 1445 1444 1444 1443 1443 1442 1442 1441 1440 1439 1439 1438 1437
1464 1463 1463 1462 1460 1459 1458 1457 1456 1455 1454 1453 1452 1451 1450 1450 1450 1449 1448 1447 1447 1447 1446 1446 1445 1445 1445 1444 1444 1444 1444 1443 1443 1442 1441 1441 1440 1439 1438 1437 1436 1436 1435 1434
1464 1463 1462 1461 1459 1458 1457 1456 1455 1454 1453 1452 1451 1450 1449 1449 1448 1447 1446 1445 1445 1445 1444 1444 1444 1443 1443 1443 1442 1442 1442 1442 1441 1440 1439 1438 1438 1437 1436 1435 1434 1433 1432 1431